SL-8 DEB, 21918

Orbit data source: Space-Track

SL-8 DEB, 21918 is space debris in LEO originally from a launch on Tue, 12 Feb 1991 UTC launched from the Plesetsk Missile And Space Complex (PKMTR). Debris objects in space refer to the collection of defunct objects orbiting the Earth. Examples of debris include non-operational satellites, rocket bodies, and fragments generated from explosions, collisions, or faulty payload assembly.

Loading next visibility...
Identifier
21918, 1991-009CB
Orbit
LEO
Country
Flag of CISCIS
Related business
Manufacturer
Unknown
Mission
Spacecraft
Bus & Motor
Unknown
Mass
Unknown
Launch date (UTC)
1991-02-12 (35 years ago)
Launch vehicle
Unknown
Launch site
Plesetsk Missile And Space Complex (PKMTR)
Object type
Payload
Rocket body
Debris
Shape & HBR
Unknown shape, 0.1 m
Radar Cross Section
Medium (>0.1 m² and <1 m²)

Expand to show TLE details & history
Last TLE update: 2 days ago

TLE from 2 days ago
0 SL-8 DEB
1 21918U 91009CB  26171.28992350  .00000067  00000-0  74828-3 0  9990
2 21918  74.0787 180.7417 0121272 179.9111 314.3453 12.22334184572623
Epoch: 2026-06-20T06:57Z
TLE epoch observation values (Epoch: 2026-06-20T06:57:29.390Z)
Latitude
44.55131°
Longitude
-28.36503°
Altitude
1,521.759 km
Speed
7.139 km/s
True Right ascension
22h 58m 03s
True Declination
44° 23' 46"
Sunlit
Object was in daylight at epoch
Visualization orbit readout
Latitude
Unknown
Longitude
Unknown
Altitude
Unknown
Speed
Unknown
Apparent Right ascension
Unknown
Apparent Declination
Unknown
Sunlit
N/A
Visualization observer readout
Local Sidereal Time
02:30:10
Azimuth
Unknown
Elevation
Unknown
Doppler factor
Unknown
Orbital elements
Apogee altitude
1,676.767 km
Perigee altitude
1,483.741 km
Semi-major axis
7,958.391 km
Eccentricity
0.01213
Inclination
74.0787°
RAAN
180.7417°
Arg. of periapsis
179.9111°
True anomaly
313.3409°
Mean anomaly
314.3453°
Eccentric anomaly
313.84416°
Mean motion
3.05707 °/min
Orbital period
117.76 mins
BSTAR
0.00074828
Loading maneuver chart data...
Computing Atmospheric mass density...
Loading historical data...
Loading historical data...
Loading historical data...
Loading historical data...
Loading historical data...
Loading historical data...
Loading historical data...

Documentation

Showing up to 5 results
|